{"data":{"norad_id":65040,"epoch":"2026-05-24T20:08:51.408096Z","epoch_age_seconds":98970,"freshness":"FRESH","line1":"1 65040U 25161AB  26144.83948389  .00022487  00000+0  76882-3 0  9995","line2":"2 65040  53.1600 300.8491 0000488  91.6858 268.4198 15.30209574 45883","mean_motion":15.30209574,"eccentricity":4.88e-5,"inclination_deg":53.16,"raan_deg":300.8491,"arg_perigee_deg":91.6858,"mean_anomaly_deg":268.4198,"bstar":0.00076882,"rev_number":4588,"period_min":94.104756921355,"perigee_km":474.85204114411,"apogee_km":475.52092551608,"semimajor_km":6853.3234833301,"source":"CELESTRAK","updated_at":"2026-05-25T13:38:20.674278Z"}}